YMA7002 YSTW-YMML

Flight info

Callsign YMA7002
Flight time N/A
Altitude 24000
Route TW DCT PKS DCT ORINO DCT ARBEY
Aircraft DH8D/M-SDE2E3FGRY/H

Departure

Time N/A
Airport Tamworth Airport (YSTW)

Arrival

Time 2026-05-05 03:47
Airport Melbourne Airport (YMML)
Time Latitude Longitude Altitude Speed Heading
2026-05-05 03:26 -36.38271 145.12776 25071 ft 331 kts 225°
2026-05-05 03:26 -36.39928 145.10851 24651 ft 324 kts 225°
2026-05-05 03:26 -36.41566 145.08948 24250 ft 317 kts 225°
2026-05-05 03:26 -36.43143 145.07115 23871 ft 310 kts 225°
2026-05-05 03:27 -36.44673 145.05280 23518 ft 305 kts 226°
2026-05-05 03:27 -36.46144 145.03429 23159 ft 301 kts 227°
2026-05-05 03:27 -36.47607 145.01564 22798 ft 299 kts 227°
2026-05-05 03:27 -36.49054 144.99707 22442 ft 298 kts 227°
2026-05-05 03:28 -36.50477 144.97867 22104 ft 297 kts 227°
2026-05-05 03:28 -36.51892 144.96033 21769 ft 296 kts 227°
2026-05-05 03:28 -36.53321 144.94179 21439 ft 297 kts 227°
2026-05-05 03:28 -36.54756 144.92314 21116 ft 297 kts 227°
2026-05-05 03:29 -36.56167 144.90479 20804 ft 298 kts 227°
2026-05-05 03:29 -36.57587 144.88628 20494 ft 297 kts 227°
2026-05-05 03:29 -36.59016 144.86762 20186 ft 297 kts 227°
2026-05-05 03:29 -36.60440 144.84900 19881 ft 296 kts 227°
2026-05-05 03:30 -36.61853 144.83064 19581 ft 296 kts 225°
2026-05-05 03:30 -36.63485 144.81416 19024 ft 305 kts 217°
2026-05-05 03:30 -36.65246 144.79952 18483 ft 312 kts 210°
2026-05-05 03:30 -36.67339 144.79306 18068 ft 315 kts 188°
2026-05-05 03:31 -36.69526 144.79129 17630 ft 315 kts 186°
2026-05-05 03:31 -36.71711 144.78941 17229 ft 313 kts 187°
2026-05-05 03:31 -36.73866 144.78735 16846 ft 311 kts 187°
2026-05-05 03:31 -36.76025 144.78507 16468 ft 309 kts 188°
2026-05-05 03:32 -36.78147 144.78267 16102 ft 308 kts 188°
2026-05-05 03:32 -36.80284 144.78012 15731 ft 306 kts 188°
2026-05-05 03:32 -36.82398 144.77751 15363 ft 305 kts 188°
2026-05-05 03:32 -36.84511 144.77484 14994 ft 303 kts 188°
2026-05-05 03:33 -36.86603 144.77212 14629 ft 302 kts 188°
2026-05-05 03:33 -36.88670 144.76944 14268 ft 300 kts 188°
2026-05-05 03:33 -36.90752 144.76669 13905 ft 299 kts 188°
2026-05-05 03:33 -36.92820 144.76395 13543 ft 298 kts 188°
2026-05-05 03:34 -36.94881 144.76119 13183 ft 297 kts 188°
2026-05-05 03:34 -36.96923 144.75842 12826 ft 295 kts 188°
2026-05-05 03:34 -36.98952 144.75571 12470 ft 291 kts 188°
2026-05-05 03:34 -37.00937 144.75304 12123 ft 287 kts 188°
2026-05-05 03:35 -37.02924 144.75035 11776 ft 284 kts 188°
2026-05-05 03:35 -37.04866 144.74773 11437 ft 281 kts 188°
2026-05-05 03:35 -37.06799 144.74510 11098 ft 276 kts 188°
2026-05-05 03:35 -37.08694 144.74254 10768 ft 272 kts 188°
2026-05-05 03:36 -37.10560 144.74002 10445 ft 268 kts 188°
2026-05-05 03:36 -37.12397 144.73752 10124 ft 265 kts 188°
2026-05-05 03:36 -37.14232 144.73506 9805 ft 262 kts 188°
2026-05-05 03:36 -37.16036 144.73265 9488 ft 261 kts 188°
2026-05-05 03:37 -37.17844 144.73358 9178 ft 262 kts 173°
2026-05-05 03:37 -37.19627 144.73822 8862 ft 262 kts 171°
2026-05-05 03:37 -37.21408 144.74312 8546 ft 261 kts 171°
2026-05-05 03:37 -37.23182 144.74799 8237 ft 260 kts 171°
2026-05-05 03:38 -37.24936 144.75278 7925 ft 258 kts 171°
2026-05-05 03:38 -37.26666 144.75746 7605 ft 256 kts 171°
2026-05-05 03:38 -37.28421 144.76219 7294 ft 253 kts 171°
2026-05-05 03:38 -37.30123 144.76682 6991 ft 249 kts 171°
2026-05-05 03:39 -37.31799 144.77135 6692 ft 246 kts 171°
2026-05-05 03:39 -37.33475 144.77541 6385 ft 243 kts 173°
2026-05-05 03:39 -37.35129 144.77852 6070 ft 236 kts 174°
2026-05-05 03:39 -37.36716 144.78154 5739 ft 231 kts 174°
2026-05-05 03:40 -37.38304 144.78453 5390 ft 226 kts 174°
2026-05-05 03:40 -37.39827 144.78737 5036 ft 220 kts 174°
2026-05-05 03:40 -37.41310 144.79016 4772 ft 207 kts 175°
2026-05-05 03:40 -37.42677 144.79274 4576 ft 191 kts 175°
2026-05-05 03:41 -37.43938 144.79511 4401 ft 173 kts 176°
2026-05-05 03:41 -37.45061 144.79723 4214 ft 157 kts 175°
2026-05-05 03:41 -37.46100 144.79913 4043 ft 146 kts 177°
2026-05-05 03:41 -37.47078 144.80087 3970 ft 137 kts 177°
2026-05-05 03:42 -37.48017 144.80257 3849 ft 137 kts 177°
2026-05-05 03:42 -37.48967 144.80423 3681 ft 140 kts 177°
2026-05-05 03:42 -37.49948 144.80611 3507 ft 143 kts 176°
2026-05-05 03:42 -37.50939 144.80795 3296 ft 143 kts 177°
2026-05-05 03:43 -37.51907 144.80980 3084 ft 140 kts 176°
2026-05-05 03:43 -37.52860 144.81163 2879 ft 136 kts 177°
2026-05-05 03:43 -37.53788 144.81325 2685 ft 131 kts 179°
2026-05-05 03:43 -37.54684 144.81480 2531 ft 129 kts 179°
2026-05-05 03:44 -37.55568 144.81636 2395 ft 130 kts 179°
2026-05-05 03:44 -37.56487 144.81796 2244 ft 134 kts 179°
2026-05-05 03:44 -37.57428 144.81970 2076 ft 140 kts 178°
2026-05-05 03:44 -37.58386 144.82152 1913 ft 140 kts 178°
2026-05-05 03:45 -37.59353 144.82333 1687 ft 140 kts 177°
2026-05-05 03:45 -37.60319 144.82524 1478 ft 137 kts 177°
2026-05-05 03:45 -37.61243 144.82703 1282 ft 134 kts 177°
2026-05-05 03:45 -37.62162 144.82875 1104 ft 132 kts 177°
2026-05-05 03:46 -37.63079 144.83048 933 ft 134 kts 177°
2026-05-05 03:46 -37.64012 144.83225 755 ft 138 kts 177°
2026-05-05 03:46 -37.64977 144.83420 583 ft 141 kts 176°
2026-05-05 03:46 -37.65940 144.83601 445 ft 138 kts 177°
2026-05-05 03:47 -37.66780 144.83746 396 ft 80 kts 170°
2026-05-05 03:47 -37.66991 144.83829 388 ft 22 kts 151°
2026-05-05 03:47 -37.67120 144.83948 384 ft 22 kts 141°
2026-05-05 03:47 -37.67225 144.84105 382 ft 21 kts 93°
2026-05-05 03:48 -37.67155 144.84244 385 ft 18 kts 20°
2026-05-05 03:48 -37.67041 144.84241 388 ft 14 kts 350°
2026-05-05 03:48 -37.66949 144.84221 389 ft 15 kts 351°
2026-05-05 03:48 -37.66823 144.84198 392 ft 17 kts 351°
2026-05-05 03:49 -37.66722 144.84216 394 ft 14 kts 48°
2026-05-05 03:49 -37.66678 144.84381 396 ft 23 kts 80°
2026-05-05 03:49 -37.66657 144.84575 400 ft 20 kts 82°
2026-05-05 03:49 -37.66636 144.84735 405 ft 16 kts 80°
2026-05-05 03:50 -37.66618 144.84869 409 ft 15 kts 80°
2026-05-05 03:50 -37.66620 144.84996 411 ft 14 kts 123°
2026-05-05 03:50 -37.66664 144.85094 411 ft 13 kts 79°
2026-05-05 03:50 -37.66656 144.85146 411 ft 0 kts 81°